Location: Bratislava
(48.1500°N, 17.1170°E)
Time: 19:29:48
(UTC+02:00)

Tiangong 1 - Visible Passes

Search period start: 16 August 2017 00:00
Search period end: 26 August 2017 00:00
Orbit: 313 x 338 km, 42.8° (Epoch: 16 August)

Date Brightness Start Highest point End Pass type
(mag) Time Alt. Az. Time Alt. Az. Time Alt. Az.
16 Aug 1.9 21:32:05 10° WSW 21:34:28 26° S 21:34:31 26° S visible
17 Aug 2.4 21:48:55 10° WSW 21:50:36 22° SSW 21:50:36 22° SSW visible
18 Aug 2.1 20:30:34 10° WSW 20:32:57 26° S 20:35:20 10° ESE visible
18 Aug 3.3 22:05:53 10° WSW 22:06:34 14° SW 22:06:34 14° SW visible
19 Aug 2.2 20:47:16 10° WSW 20:49:38 25° S 20:51:28 13° SE visible
20 Aug 2.6 21:04:06 10° WSW 21:06:13 20° SSW 21:07:19 16° SSE visible
21 Aug 3.1 21:21:16 10° SW 21:22:42 13° SSW 21:23:07 13° SSW visible
